GEFSMW_850_meantemp_000.txt.gz
Temperature
22 22 21 22 21 21 21 20 20 21 20 19 19 19 19 18 18 17 17 17 16 15 15 15 15 15 15 15 15 15 16 16 16 16 16 16 17 18 17 16 17 17 17
22 22 22 22 22 21 21 21 20 21 20 19 19 19 18 18 18 17 16 16 16 15 15 15 14 14 14 14 14 14 15 16 17 17 16 17 18 18 18 17 16 17 17
23 22 23 23 22 22 21 21 21 21 20 20 19 18 18 18 18 17 17 16 15 15 15 15 14 15 14 14 14 14 14 15 16 16 16 17 18 19 18 17 16 17 17
23 23 23 23 22 22 21 21 22 21 21 20 19 19 19 19 18 17 17 16 15 15 15 14 13 14 14 13 13 13 13 14 15 16 16 16 16 17 17 17 16 17 17
22 23 22 23 22 22 21 21 21 21 21 21 20 19 19 19 18 17 16 15 15 14 14 14 13 13 13 13 13 13 13 13 14 15 16 16 16 15 15 16 17 17 17
22 21 22 22 21 20 20 20 20 21 21 21 20 20 19 19 18 17 16 16 15 15 14 13 13 12 12 12 12 13 13 13 14 14 14 15 16 16 16 16 17 18 18
18 17 18 18 18 18 19 19 19 20 20 20 20 19 19 19 18 16 16 16 15 15 14 14 13 13 12 12 12 12 13 13 13 13 13 14 14 16 17 17 17 17 17
17 16 15 15 15 15 15 16 16 17 18 19 19 19 19 18 17 16 17 16 16 15 15 15 14 13 12 12 13 12 13 13 13 13 14 14 14 14 15 17 17 16 15
15 15 14 14 14 14 13 13 13 14 15 16 16 17 18 18 17 16 17 16 16 16 15 15 14 14 13 12 12 13 13 13 12 13 13 14 14 15 15 16 16 15 15
15 14 14 13 12 12 12 12 12 12 13 13 14 14 15 15 15 15 15 15 15 15 15 15 14 12 12 12 13 13 13 12 12 13 14 14 14 15 15 15 15 15 15
14 14 13 13 12 12 12 11 11 12 13 13 12 13 13 13 14 14 14 14 14 15 14 14 13 12 12 12 13 12 13 13 13 13 13 13 13 14 14 14 14 14 14
13 13 13 12 12 11 11 10 10 10 11 12 13 13 12 12 13 13 13 14 13 13 13 13 13 13 12 12 12 12 12 13 13 13 13 13 13 13 13 13 14 14 14
12 12 12 12 11 10 10 9 10 11 12 11 11 12 12 11 11 12 13 13 13 13 13 13 13 13 12 12 12 12 12 13 13 13 12 13 12 12 12 12 13 13 13
10 10 10 10 11 11 11 10 9 10 11 11 10 9 11 11 10 11 12 12 12 13 13 13 13 13 13 12 12 12 12 13 13 13 13 13 13 13 12 12 12 12 12
9 9 9 10 10 10 11 11 11 10 10 10 10 8 9 11 9 10 11 12 12 13 13 13 13 13 13 13 13 12 12 12 13 13 13 13 13 13 13 12 12 11 11
10 10 10 11 11 11 11 10 10 10 10 10 10 10 10 8 9 10 11 11 11 12 12 12 12 13 13 13 13 12 12 12 12 13 13 13 13 12 12 12 12 11 11
12 12 12 12 12 11 11 11 11 11 11 11 11 11 11 10 10 10 10 10 10 11 12 12 12 12 12 13 12 12 11 12 12 12 12 12 13 12 12 12 12 11 11
12 12 11 11 11 11 11 10 10 11 11 11 11 11 11 11 10 10 10 10 10 10 11 11 11 12 12 12 12 12 11 11 11 12 12 12 12 12 12 11 12 12 12
11 11 11 10 10 10 10 10 10 10 10 10 10 10 10 10 10 10 10 9 9 9 10 11 11 11 11 12 12 11 11 11 11 11 11 11 12 11 11 12 12 12 12
10 10 10 9 9 9 9 9 9 9 9 9 9 9 9 9 9 10 9 9 9 9 9 9 10 10 10 11 12 11 11 11 11 11 11 11 11 12 11 11 12 12 12
10 9 9 9 9 8 8 7 7 7 8 8 8 8 8 9 9 9 9 9 9 9 9 9 9 10 9 10 11 11 11 12 11 11 11 11 11 11 11 11 11 11 11
9 9 9 8 8 7 6 6 5 6 6 6 7 7 7 8 9 9 9 9 9 9 9 9 8 8 9 8 9 10 11 11 12 12 11 11 11 11 11 10 11 11 11
9 9 8 7 6 5 5 4 4 4 4 5 5 5 6 7 8 8 8 8 9 9 10 10 8 8 8 8 8 9 10 10 11 12 10 10 10 10 10 10 10 10 11
8 8 8 6 4 4 4 3 4 4 4 4 5 5 5 6 6 7 8 9 10 10 10 9 8 8 7 8 8 9 10 10 11 11 10 10 9 9 9 9 9 10 10
8 8 7 5 4 3 3 4 4 3 3 4 4 4 4 4 5 6 7 8 9 9 10 8 8 7 7 8 8 8 9 9 10 10 9 9 9 9 9 9 9 9 9
7 7 6 4 3 3 3 3 4 3 3 3 3 3 4 4 4 5 6 7 8 8 8 8 8 7 7 8 8 8 9 10 10 9 10 10 10 9 10 10 9 9 10

GEFSMW_850_meantemp_006.txt.gz
Temperature
27 25 24 23 23 23 22 21 21 20 20 20 20 20 20 20 20 20 19 18 18 17 17 16 16 16 16 16 16 16 16 16 16 16 16 17 17 18 18 18 18 18 18
24 23 22 23 23 22 21 21 21 20 21 21 21 21 21 20 20 20 19 19 17 17 17 16 16 15 15 15 15 15 15 15 15 15 15 16 17 18 19 19 19 19 18
19 20 22 23 22 22 21 21 21 21 21 21 21 21 20 20 20 19 19 19 18 17 17 16 16 15 15 15 15 15 15 14 14 15 15 15 16 17 18 18 19 18 18
16 17 19 21 21 21 21 21 20 21 21 21 21 20 20 20 20 20 20 19 18 18 17 17 16 16 16 16 15 14 15 14 14 14 14 15 15 15 16 17 18 18 18
16 17 18 19 19 20 20 20 19 19 20 20 20 20 20 20 20 20 19 19 19 18 17 17 16 16 16 15 15 15 15 15 14 14 14 14 15 15 15 16 16 17 17
16 16 16 17 18 18 18 18 17 17 18 18 18 18 18 19 19 19 19 19 18 18 18 17 16 16 16 15 15 15 14 14 14 14 14 14 14 14 15 15 16 16 17
17 16 16 16 16 16 16 15 15 16 16 16 16 17 17 17 17 17 18 18 18 18 18 17 17 17 16 16 16 14 14 14 14 14 14 14 14 14 14 15 15 16 17
17 16 16 15 15 15 14 14 14 14 15 15 15 15 15 15 15 16 16 17 17 17 17 17 17 17 16 16 15 14 14 13 14 14 14 14 14 14 14 14 15 15 16
17 17 16 16 15 15 14 14 14 14 14 14 15 14 15 15 15 15 15 15 15 16 16 16 15 15 16 15 15 15 14 14 14 14 14 14 14 14 14 14 14 15 15
18 17 16 16 15 15 14 14 14 14 14 14 14 14 14 14 15 15 15 15 15 15 15 14 14 14 15 15 14 14 14 14 14 14 14 14 14 14 14 14 14 15 15
17 16 16 15 15 15 14 14 13 13 13 13 13 14 13 14 14 14 14 15 15 14 14 14 14 14 14 14 14 14 14 14 14 14 14 14 14 14 14 14 14 14 15
15 15 15 14 14 13 13 13 12 12 12 12 12 12 12 12 12 12 13 13 13 14 14 13 13 13 13 14 14 14 14 14 14 14 14 13 13 14 14 14 14 14 14
15 14 13 13 12 12 12 12 12 11 11 11 11 11 11 11 11 11 11 12 12 12 13 13 13 13 13 13 13 14 13 14 14 14 14 13 13 14 14 14 14 14 14
15 14 13 13 13 12 12 12 12 12 12 11 11 11 11 11 11 11 11 11 11 11 11 12 12 12 12 13 13 13 13 13 14 14 14 13 13 13 14 14 13 13 13
16 15 14 14 13 13 13 13 12 12 12 12 11 11 11 11 11 11 10 10 10 10 10 10 11 11 11 12 12 13 13 13 14 14 13 13 13 13 14 13 13 12 13
16 15 15 14 14 13 13 12 12 12 12 11 11 11 11 11 11 11 10 10 10 10 10 10 10 10 11 11 12 12 12 13 13 13 13 13 13 13 13 13 12 12 12
15 14 14 14 13 13 12 12 12 11 11 11 10 10 10 10 11 11 11 11 10 10 10 10 10 10 10 11 11 12 12 13 13 13 13 13 13 13 13 12 12 12 12
14 13 13 13 12 12 12 12 11 11 10 10 9 9 9 9 9 10 10 10 10 10 10 10 10 10 10 10 10 11 12 12 12 13 13 13 13 12 12 12 12 12 11
13 13 12 12 12 12 11 11 11 10 10 9 9 8 8 8 8 8 9 9 9 10 10 10 10 10 10 10 10 11 11 11 12 12 12 12 12 12 12 12 12 12 11
13 12 12 12 11 11 11 10 10 10 9 9 8 7 7 7 7 7 8 8 9 9 9 10 10 10 9 9 10 10 10 10 11 11 12 12 12 12 12 12 12 12 11
12 12 12 11 11 11 10 10 9 9 8 8 7 6 6 6 6 7 7 7 8 8 9 9 9 9 9 9 10 10 10 10 10 10 11 12 12 12 12 12 12 12 12
12 12 11 11 10 10 9 8 8 7 7 6 6 5 5 5 6 6 6 7 7 8 8 8 9 9 9 9 9 9 9 10 10 10 10 11 12 12 11 11 11 12 12
11 11 10 10 9 8 7 6 6 5 5 4 4 4 5 5 5 5 6 6 7 7 7 8 9 9 9 9 9 9 9 9 10 9 9 10 11 11 11 11 11 11 11
10 9 8 8 7 6 5 4 4 3 3 3 3 4 4 4 5 5 5 6 6 7 7 8 8 9 9 9 9 9 9 9 9 9 9 9 10 11 11 11 11 11 12
8 7 6 5 4 3 3 3 2 2 2 3 3 3 4 4 5 5 5 6 6 6 7 7 7 8 8 8 9 9 8 8 9 8 8 9 10 10 11 11 11 11 12
6 5 4 3 3 2 2 2 2 2 2 3 3 4 4 4 4 5 5 5 6 6 6 7 7 7 8 8 8 8 8 8 8 8 8 8 10 10 10 10 11 11 11

GEFSMW_850_meantemp_012.txt.gz
Temperature
17 18 18 18 18 18 18 17 16 16 16 17 17 18 18 19 19 19 19 19 19 18 18 17 17 16 16 16 16 16 16 16 15 15 15 16 16 16 16 16 17 17 17
16 17 17 17 17 17 17 17 17 17 17 17 18 18 19 19 19 19 19 19 19 18 18 18 17 17 17 17 16 16 16 16 15 15 14 14 15 16 16 16 16 17 17
15 15 16 16 17 16 16 16 16 16 16 17 18 18 19 19 19 19 19 19 19 19 18 18 18 18 18 17 17 17 16 16 16 15 14 13 13 14 16 16 17 17 17
15 15 15 15 15 15 15 15 16 16 17 17 18 18 19 19 19 19 19 19 18 18 18 18 18 18 18 18 17 17 17 16 16 15 14 13 13 13 14 16 16 16 17
15 15 15 15 16 16 16 15 15 16 17 17 18 18 18 18 18 18 18 18 18 18 18 18 18 18 18 18 17 17 17 16 15 15 14 14 14 13 13 14 15 16 17
15 15 15 15 15 16 16 16 16 16 16 16 16 16 17 17 17 17 17 17 17 17 17 17 17 17 17 17 17 17 17 16 15 14 14 14 14 14 13 13 14 15 16
16 16 16 16 15 15 15 15 15 15 15 15 15 15 15 15 15 15 15 15 16 16 17 17 17 17 17 17 17 17 16 16 15 14 14 13 13 13 13 13 13 13 15
16 16 16 15 15 15 15 15 14 14 14 14 14 14 14 14 14 14 13 14 14 14 15 16 16 16 16 16 16 16 16 16 15 14 14 13 13 14 13 13 13 13 13
16 16 16 16 15 15 15 14 14 14 13 13 13 13 13 13 13 13 13 13 13 13 13 14 14 14 14 14 15 15 15 15 15 14 13 13 13 14 14 14 13 13 13
16 16 16 16 16 15 15 14 14 13 13 13 13 13 12 12 12 12 12 12 12 12 13 13 13 13 13 13 14 14 15 15 15 14 13 13 13 13 14 14 14 14 13
16 16 16 15 15 15 14 14 14 13 13 13 13 12 12 12 12 12 11 11 11 11 12 12 12 12 12 13 13 14 14 14 14 14 14 13 13 13 14 14 14 14 14
16 15 14 14 14 14 14 14 13 13 13 13 12 12 12 12 12 12 11 11 11 11 11 11 11 11 11 12 12 13 13 14 14 14 14 13 13 13 14 14 14 14 14
14 14 14 14 14 13 13 13 13 13 13 12 12 12 12 11 11 11 11 11 11 11 10 10 11 11 11 11 11 12 12 13 13 14 13 13 13 13 14 14 14 14 14
14 14 13 13 13 13 13 13 13 12 12 12 12 12 12 11 11 11 11 10 10 10 10 10 10 10 10 10 10 11 11 12 12 13 13 13 13 13 14 14 14 14 14
13 13 13 13 13 13 13 12 12 12 12 12 12 11 11 11 11 10 10 10 10 10 10 10 10 10 10 10 10 10 10 11 12 12 13 13 13 13 13 14 14 14 14
14 13 13 13 13 13 12 12 12 12 12 11 11 11 11 11 10 10 10 10 9 9 9 9 9 10 10 10 10 10 10 10 11 12 12 13 13 13 13 13 14 14 14
13 13 13 12 12 12 11 11 11 11 11 11 11 11 11 10 10 10 10 9 9 9 9 9 9 9 9 10 10 10 10 10 10 11 12 12 13 13 13 13 13 14 13
12 12 11 11 11 10 10 10 10 10 10 10 10 10 10 10 9 9 9 9 9 8 8 8 8 9 9 9 9 9 9 9 10 10 11 11 12 12 13 13 13 13 13
11 11 10 9 9 9 8 8 8 7 7 8 8 8 8 8 8 8 8 8 8 8 8 8 8 8 9 9 9 9 9 9 9 10 10 11 11 12 12 13 13 13 12
10 9 8 8 7 7 6 5 5 5 5 5 5 5 6 6 7 7 7 7 7 7 7 7 7 7 8 9 9 9 9 9 9 9 10 10 11 11 12 12 12 12 12
8 8 7 6 5 5 4 4 4 4 4 3 4 4 4 4 5 5 5 6 6 6 6 6 7 7 8 8 9 9 9 9 9 9 9 10 10 11 11 12 12 13 12
7 6 5 5 4 4 4 3 3 3 3 3 3 3 3 3 3 4 4 4 5 5 5 6 6 7 7 8 8 9 9 9 9 9 9 9 10 10 11 11 12 12 12
6 5 5 4 4 4 4 3 4 3 3 3 3 3 3 3 3 3 3 3 4 4 5 5 6 7 7 8 8 9 9 9 9 8 8 8 9 9 10 10 11 11 11
5 5 4 4 4 4 4 4 4 4 3 3 3 3 3 3 3 3 3 3 4 4 5 5 6 6 7 8 8 9 9 8 8 8 8 8 8 8 9 10 10 11 11
5 4 4 4 4 4 4 4 4 4 4 4 3 3 3 3 3 4 4 4 4 4 5 5 6 6 7 8 8 8 9 9 8 8 8 7 8 8 8 9 10 10 11
5 4 4 4 4 4 5 5 4 4 4 4 4 3 3 3 3 4 4 4 4 4 5 5 6 6 7 7 8 8 8 8 8 8 7 7 7 8 8 9 9 10 10

GEFSMW_850_meantemp_018.txt.gz
Temperature
15 16 16 17 17 17 16 16 16 16 16 15 15 15 15 15 15 16 16 16 17 17 17 17 17 16 16 16 15 15 15 15 15 15 15 16 16 16 16 16 16 16 16
15 16 16 16 16 16 16 16 16 16 15 15 15 15 15 15 16 16 17 17 17 17 17 17 17 17 16 16 16 16 15 15 15 15 15 16 16 16 16 16 15 15 16
15 15 15 16 16 16 16 16 16 16 16 16 16 16 16 16 16 17 17 17 17 17 17 17 17 17 17 16 16 16 16 16 15 15 15 15 15 15 15 15 15 15 15
15 15 15 16 16 16 16 16 16 16 16 16 16 16 16 16 16 16 17 17 17 17 17 17 17 17 17 17 17 17 16 16 15 15 15 15 15 15 15 15 15 15 15
15 15 15 15 16 16 16 16 16 16 16 15 15 15 15 15 15 15 16 17 17 17 17 17 17 17 16 16 16 17 17 16 16 15 15 14 14 14 14 14 15 15 16
15 15 15 15 15 15 15 15 15 15 15 15 15 15 15 15 14 15 15 15 15 16 16 16 16 16 16 16 16 16 16 16 16 16 15 15 14 14 14 13 14 15 16
15 15 15 15 15 15 15 15 15 15 14 14 14 14 14 14 14 14 14 14 14 14 14 15 15 15 16 16 16 15 15 16 16 16 16 15 15 14 14 13 13 13 14
15 15 15 15 14 14 14 14 14 14 14 14 14 13 13 13 13 13 13 13 13 13 13 13 14 14 14 15 15 15 15 15 15 16 16 15 15 14 14 13 13 12 12
15 15 15 14 14 14 14 14 14 14 13 13 13 13 13 13 13 13 13 13 13 13 13 13 13 13 13 13 14 14 14 14 14 15 15 15 15 15 14 14 13 12 12
15 15 14 14 13 13 13 13 13 13 13 13 13 13 13 13 13 13 12 12 12 12 12 12 12 12 12 12 12 12 13 13 13 14 14 14 15 14 14 14 13 13 12
14 14 14 13 13 13 13 13 13 13 13 13 13 12 12 12 12 12 12 12 12 11 11 11 11 11 11 12 12 12 12 12 12 13 13 14 14 14 14 14 13 13 13
13 13 13 13 12 12 12 12 12 12 12 12 12 12 12 12 12 12 12 12 11 11 11 11 11 11 11 11 11 11 11 11 11 12 12 13 13 13 13 14 14 13 13
13 13 12 12 11 11 11 11 11 11 11 11 11 11 11 11 11 11 11 11 11 11 11 11 10 10 10 10 10 10 11 11 11 11 11 12 12 13 13 14 14 13 13
12 11 11 10 10 10 9 9 9 9 9 9 9 10 10 10 11 11 11 11 11 11 11 11 10 10 10 10 10 10 10 10 10 10 11 11 12 12 13 13 14 13 13
11 10 10 9 9 8 7 7 7 7 7 7 7 8 8 9 9 9 10 10 11 11 11 10 10 10 10 10 10 10 10 10 10 10 10 11 11 12 12 13 13 13 13
10 9 9 8 7 6 6 5 5 5 5 5 5 6 6 6 7 8 8 9 10 10 10 10 10 10 9 9 9 9 9 9 9 9 10 10 10 11 12 12 13 13 13
9 8 7 7 6 5 5 5 4 4 4 4 5 5 5 5 5 6 6 7 8 9 9 9 9 9 9 9 9 9 9 9 9 9 9 10 10 11 11 12 12 13 13
8 7 7 6 5 5 4 4 4 4 4 4 4 4 4 4 4 4 5 5 6 7 8 8 9 9 9 9 9 9 9 9 9 9 9 9 10 10 11 12 12 12 13
7 7 6 5 5 5 4 4 4 4 4 4 4 4 4 3 3 4 4 4 5 6 6 7 7 8 8 8 8 8 8 9 9 9 9 9 9 10 10 11 11 12 12
7 6 6 5 5 5 4 4 4 4 4 4 4 4 3 3 3 3 3 3 4 4 5 6 7 7 7 8 8 8 8 8 9 9 9 9 9 9 10 10 11 11 12
7 6 6 6 5 5 4 4 4 4 4 4 4 4 4 3 3 3 3 3 3 4 4 5 6 6 7 7 7 7 7 8 8 9 9 9 9 9 9 10 10 11 11
7 6 6 6 6 5 5 4 4 4 4 4 4 4 4 3 3 3 3 3 3 3 4 4 5 5 6 6 7 7 7 7 8 8 9 9 8 9 9 9 10 10 11
7 6 6 6 6 6 5 5 5 5 4 4 4 4 4 4 3 3 3 3 3 3 3 4 4 5 5 6 6 6 7 7 8 8 8 8 8 8 9 9 10 10 10
7 6 6 6 6 6 6 5 5 5 5 4 4 4 4 4 4 3 3 3 3 3 3 4 4 4 5 6 6 6 7 7 7 8 8 8 8 8 8 9 9 10 10
7 7 6 6 6 6 6 6 5 5 5 5 4 4 4 4 4 4 3 3 4 3 4 4 4 4 5 5 6 6 7 7 8 8 8 8 7 7 8 8 9 9 10
7 7 7 7 6 6 6 6 6 6 5 5 5 4 4 4 4 4 4 4 4 4 4 4 4 4 5 5 6 6 7 7 7 8 8 7 7 7 7 8 8 9 9

GEFSMW_850_meantemp_024.txt.gz
Temperature
17 16 16 16 16 16 16 16 17 16 16 16 15 15 15 15 15 15 15 15 15 15 15 15 16 16 16 16 16 16 16 16 16 16 17 17 17 17 16 16 17 17 17
17 17 17 17 16 16 16 16 16 16 16 16 15 15 15 15 15 15 15 15 15 15 15 15 15 15 15 16 16 16 16 16 16 16 17 18 18 17 17 16 16 16 17
18 17 17 17 16 16 16 16 15 15 15 15 15 15 15 15 15 15 15 15 15 15 15 16 15 15 15 15 16 15 15 16 16 16 17 18 20 20 18 16 16 16 16
18 17 17 17 16 16 15 15 15 15 15 14 14 14 14 14 14 14 14 14 15 15 15 15 15 15 15 15 15 15 15 15 16 16 16 16 17 18 19 17 17 16 15
18 17 17 16 16 15 15 14 14 14 14 14 14 13 14 14 14 14 14 14 14 14 15 15 15 15 15 15 15 15 15 15 16 16 16 16 15 16 17 19 18 16 16
18 17 17 16 16 15 15 14 13 13 13 13 13 13 13 13 13 13 13 13 14 14 14 14 14 15 15 15 15 15 15 15 15 16 16 16 16 16 17 17 17 17 17
18 17 17 16 15 15 14 14 13 12 12 12 12 12 12 12 12 12 13 13 13 13 13 13 14 14 14 14 14 15 15 15 15 15 15 16 16 17 17 17 17 16 16
18 17 16 16 15 14 14 13 12 12 12 12 11 11 11 12 12 12 12 12 13 13 13 13 13 13 13 13 14 14 14 14 14 15 15 15 15 16 16 16 16 16 17
17 17 16 15 15 14 13 13 12 11 11 11 11 11 11 11 11 11 11 12 12 12 12 12 12 12 12 12 13 13 13 13 13 14 14 14 15 15 15 15 15 16 18
17 16 15 15 14 13 13 12 11 11 10 10 10 10 10 10 10 10 10 10 11 11 11 11 11 11 12 12 12 12 12 12 12 13 13 13 14 14 14 15 15 15 16
16 16 15 14 13 13 12 11 11 10 10 9 9 8 8 8 9 9 9 9 10 10 10 10 10 11 11 11 11 11 11 11 12 12 12 13 13 13 14 14 14 14 15
15 15 14 13 12 12 11 11 10 9 9 8 8 8 8 8 8 8 8 8 8 9 9 10 10 10 11 11 11 11 11 11 11 11 11 11 12 12 13 13 13 14 14
15 14 13 12 11 11 10 10 9 9 8 8 7 7 7 7 7 7 7 7 7 8 8 9 9 10 10 10 11 11 11 10 10 10 11 11 11 11 12 12 13 13 13
14 13 12 11 11 10 9 9 8 8 7 7 7 6 6 6 6 6 6 6 6 7 7 8 8 9 9 10 10 10 10 10 10 10 10 10 10 10 11 11 12 12 13
14 13 12 11 10 9 9 8 7 7 6 6 6 6 6 6 6 6 6 6 6 6 6 7 7 8 9 9 10 10 10 10 10 10 10 10 10 10 10 10 11 11 12
13 12 11 10 10 9 8 8 7 7 6 6 6 6 6 6 6 6 5 5 5 5 6 6 6 7 8 9 9 10 10 10 10 10 10 10 10 10 10 10 10 10 11
12 11 11 10 9 9 8 7 7 6 6 6 6 6 6 6 5 5 5 5 5 5 5 5 6 6 7 8 9 9 9 10 10 9 9 10 10 9 10 10 10 10 10
11 11 10 10 9 9 8 7 7 6 6 6 6 6 5 5 5 5 5 5 5 4 4 5 5 5 6 7 8 9 9 9 9 9 9 9 10 9 9 9 10 10 10
11 10 10 9 9 8 8 7 6 6 6 6 6 5 5 5 5 5 5 5 4 4 4 4 4 5 6 6 7 8 8 8 9 9 9 9 9 9 9 9 9 10 10
10 10 9 9 9 8 7 6 6 6 6 6 5 5 5 5 5 5 5 5 4 4 4 4 4 5 5 6 7 7 8 8 8 8 9 9 9 9 9 9 9 10 10
10 9 9 9 8 8 7 6 6 6 5 5 5 5 5 5 5 5 5 5 4 4 4 4 4 5 5 6 6 7 7 8 8 9 9 9 9 9 9 9 9 9 10
10 9 9 9 8 7 7 6 6 6 5 5 5 5 5 5 5 5 5 5 4 4 4 4 4 5 5 5 6 7 7 7 8 8 9 9 9 9 9 9 9 9 9
10 9 9 8 8 7 7 6 6 6 5 5 5 5 5 5 5 5 5 5 5 4 4 4 4 5 5 5 6 6 7 7 7 8 8 8 8 8 9 9 9 9 9
9 9 8 8 8 7 7 6 6 6 5 5 5 5 5 5 5 5 5 5 5 4 4 4 4 5 5 5 6 6 6 7 7 7 7 8 8 8 8 9 9 9 9
9 8 8 7 7 7 7 6 6 6 6 6 5 5 6 6 5 5 5 5 5 4 4 4 4 5 5 5 6 6 6 7 7 7 7 8 8 8 8 9 9 9 9
8 8 7 7 7 7 6 6 6 6 6 6 6 6 6 6 6 6 6 6 5 5 5 5 5 5 5 5 5 6 6 7 7 7 7 8 8 8 9 9 9 9 9

GEFSMW_850_meantemp_030.txt.gz
Temperature
19 19 19 19 18 17 17 17 16 16 16 16 16 16 16 16 16 16 16 15 15 15 15 15 15 15 15 15 15 15 15 15 15 15 16 16 17 17 17 18 17 17 17
20 20 19 19 19 18 17 17 16 16 15 15 15 15 15 15 16 16 16 15 15 15 14 15 15 15 15 15 15 15 15 15 15 15 16 16 17 17 18 18 18 17 17
21 20 20 19 19 18 18 17 16 15 15 14 14 14 14 15 15 15 15 15 15 14 14 14 15 15 15 15 15 15 15 15 15 15 16 16 17 18 18 18 18 18 18
21 20 20 20 19 18 18 17 16 15 14 14 13 13 13 13 14 14 14 14 14 14 14 14 14 14 14 15 15 15 15 15 15 15 16 16 17 17 18 18 18 18 18
21 21 20 20 19 18 17 17 16 15 14 13 13 12 12 12 12 13 13 13 14 14 14 14 14 14 14 14 14 14 15 15 15 15 15 16 16 17 17 18 18 18 18
22 21 21 20 19 18 17 17 16 15 14 13 12 12 12 12 12 12 12 13 13 14 14 14 14 14 14 14 14 14 14 14 15 15 15 15 16 17 18 18 18 18 18
22 21 21 20 19 18 17 16 15 14 14 13 12 12 11 11 11 12 12 12 12 13 13 13 13 13 13 13 14 14 14 14 14 15 15 15 15 16 17 18 18 18 18
22 22 21 19 19 18 17 16 15 14 13 12 12 11 11 11 11 11 11 11 11 12 12 12 12 12 12 13 13 13 13 14 14 14 14 15 15 16 16 17 18 18 18
22 21 20 19 18 17 16 15 14 13 12 12 11 11 11 10 10 10 10 10 10 11 11 11 12 12 12 12 12 12 13 13 13 14 14 14 15 15 16 17 17 17 18
21 20 19 18 17 16 15 14 14 13 12 11 11 11 10 9 9 9 9 9 9 9 10 10 10 11 11 11 11 12 12 12 13 13 13 14 14 15 15 16 16 17 17
20 19 18 17 16 15 15 14 13 12 12 11 10 10 9 9 9 9 9 9 9 9 9 9 9 10 10 10 11 11 11 12 12 12 13 13 13 14 14 15 15 16 16
19 18 18 16 15 15 14 13 12 12 11 11 10 10 9 9 9 8 8 8 8 8 8 8 8 9 9 9 10 10 11 11 11 12 12 12 12 13 13 14 15 15 15
19 18 17 16 15 14 13 12 12 11 11 10 10 9 9 9 8 8 8 8 8 8 8 8 8 8 8 9 9 10 10 10 11 11 11 11 12 12 12 13 14 14 14
18 17 16 15 14 13 13 12 12 11 11 10 9 9 9 8 8 8 8 8 8 8 8 8 7 7 8 8 8 9 9 10 10 11 11 11 11 11 12 12 13 13 14
18 17 16 15 14 13 12 12 11 11 10 10 9 9 9 8 8 8 8 8 8 8 7 7 7 7 7 8 8 8 9 9 9 10 10 11 11 11 11 11 12 12 13
17 16 15 15 14 13 12 12 11 11 10 9 9 9 8 8 8 8 8 8 8 7 7 7 7 7 7 7 8 8 8 8 9 9 10 10 11 11 11 11 11 11 12
17 16 15 14 13 13 12 12 11 10 10 9 9 8 8 8 8 8 7 7 7 7 7 7 7 7 7 7 7 7 7 8 8 8 9 9 10 10 11 11 11 11 11
16 15 14 14 13 13 12 11 11 10 9 9 8 8 8 8 7 7 7 7 7 7 7 7 7 7 6 6 6 7 7 7 7 8 8 9 10 10 10 10 10 11 11
15 14 14 13 13 12 12 11 10 10 9 9 8 8 8 7 7 7 7 7 7 7 7 7 7 6 6 6 6 6 6 6 7 8 8 9 9 10 10 10 10 10 10
15 14 14 13 12 12 11 10 10 9 9 8 8 7 7 7 7 7 7 7 7 7 7 7 7 6 6 6 6 6 6 6 7 7 8 8 9 9 10 10 10 10 10
15 14 13 13 12 11 11 10 9 9 8 8 7 7 7 7 7 7 7 7 7 7 7 7 7 6 6 6 6 6 6 6 6 7 8 8 9 9 9 10 10 10 10
15 14 13 12 12 11 10 9 9 8 8 8 7 7 7 7 7 7 7 7 7 7 7 7 7 6 6 6 6 6 6 6 6 7 8 8 9 9 9 9 9 9 9
14 13 12 12 11 10 10 9 8 8 7 7 7 7 7 7 7 7 7 7 7 7 7 7 6 6 6 6 6 6 6 6 6 7 7 8 8 9 9 9 9 9 9
13 13 12 11 11 10 9 8 8 7 7 7 7 7 7 7 7 7 8 8 8 7 7 7 6 6 6 6 6 6 6 6 7 7 7 7 8 8 9 9 9 9 9
13 12 12 11 10 9 9 8 7 7 7 7 7 7 7 7 7 8 8 8 8 8 7 7 6 6 6 6 6 6 6 6 7 7 7 8 8 8 8 8 9 9 9
13 12 11 10 10 9 8 7 7 7 6 6 6 7 7 7 7 8 8 8 8 8 7 7 6 6 6 6 6 6 6 7 7 7 7 7 8 8 8 8 9 9 9

GEFSMW_850_meantemp_036.txt.gz
Temperature
18 18 18 18 18 18 18 17 17 17 17 16 16 15 15 15 14 14 14 14 14 14 14 14 14 14 14 14 14 14 14 14 14 14 14 15 15 16 16 16 16 16 17
18 18 18 18 18 18 18 17 17 17 16 16 15 15 14 14 14 14 13 13 13 13 13 14 14 14 14 14 14 14 14 14 14 14 14 14 15 15 16 16 16 16 16
19 19 19 18 18 18 18 18 17 17 16 15 15 14 14 13 13 13 13 13 13 13 13 13 13 14 14 14 14 14 14 14 14 14 14 14 14 15 16 16 16 16 16
19 19 19 19 19 18 18 17 17 16 16 15 14 14 13 12 12 12 12 12 12 13 13 13 13 13 13 13 13 13 13 13 13 13 13 14 14 14 15 16 16 16 16
20 20 19 19 19 18 18 17 16 16 15 14 14 13 12 12 11 11 11 12 12 12 12 12 12 12 13 13 13 13 13 13 13 13 13 14 14 14 14 15 16 16 16
20 20 19 19 18 18 17 17 16 15 15 14 13 12 12 11 11 11 11 11 11 12 12 12 12 12 12 12 12 12 13 13 13 13 13 13 13 14 14 14 15 16 16
20 20 19 19 18 18 17 16 15 15 14 13 13 12 11 11 11 10 10 10 10 10 11 11 11 11 11 11 12 12 12 12 13 13 13 13 13 14 14 14 15 15 16
20 19 19 18 18 17 16 16 15 14 13 13 12 11 11 11 10 10 10 10 10 10 10 10 10 10 11 11 11 11 11 12 12 12 13 13 13 13 14 14 14 15 15
19 19 19 18 17 17 16 15 14 13 13 12 12 11 11 10 10 10 10 9 9 9 9 9 10 10 10 10 10 11 11 11 11 12 12 13 13 13 13 13 14 14 15
19 19 18 18 17 16 15 15 14 13 12 12 11 11 11 10 10 9 9 9 9 9 9 9 9 9 9 10 10 10 10 10 11 11 11 12 12 13 13 13 13 14 14
19 19 18 18 17 16 15 14 13 13 12 12 11 11 10 10 10 9 9 9 9 9 8 8 9 9 9 9 9 9 9 10 10 10 11 11 12 12 12 13 13 13 14
19 19 18 17 16 15 14 14 13 12 12 12 11 11 10 10 10 9 9 9 8 8 8 8 8 8 8 9 9 9 9 9 9 10 10 10 11 11 12 12 12 13 13
19 18 17 16 16 15 14 13 13 12 12 12 11 11 10 10 10 9 9 9 8 8 8 8 8 8 8 8 8 8 9 9 9 9 9 10 10 10 11 11 12 12 13
18 17 17 16 15 14 14 13 13 12 12 11 11 11 10 10 10 9 9 8 8 8 8 8 8 8 8 8 8 8 8 8 9 9 9 9 9 10 10 11 11 11 12
17 17 16 15 15 14 13 13 12 12 12 11 11 11 10 10 9 9 9 8 8 8 7 7 7 7 7 8 8 7 7 7 8 8 8 8 9 9 10 10 10 11 11
17 17 16 15 14 14 13 13 12 12 11 11 11 10 10 9 9 9 8 8 8 7 7 7 7 7 7 7 7 7 7 7 7 7 8 8 8 9 9 9 10 10 11
17 17 16 15 14 13 13 12 12 11 11 11 10 10 9 9 9 8 8 8 8 7 7 7 7 7 8 7 7 7 7 6 7 7 7 7 8 8 8 9 9 10 10
17 17 16 15 14 13 13 12 12 11 11 10 10 9 9 9 8 8 8 8 7 7 7 8 8 7 8 7 7 7 6 6 6 6 7 7 7 8 8 8 9 9 10
17 16 15 15 14 13 12 12 11 11 10 10 9 9 8 8 8 8 7 7 7 7 8 8 8 8 8 7 7 7 6 6 6 6 6 6 7 7 7 8 8 9 9
17 16 15 15 14 13 12 11 11 10 10 9 9 8 8 8 7 7 7 7 7 8 8 8 8 8 7 7 7 7 6 6 6 6 6 6 6 7 7 7 8 8 9
17 16 15 15 14 13 12 11 10 10 9 9 9 8 8 7 7 7 7 7 7 8 8 8 8 7 7 7 7 7 6 6 6 6 6 6 6 6 7 7 8 8 9
17 16 15 14 13 12 12 11 10 10 9 9 8 8 8 7 7 7 7 7 7 8 8 8 8 7 7 7 7 6 6 6 6 6 6 6 6 6 7 7 7 8 8
17 16 15 14 13 12 11 11 10 9 9 9 8 8 8 7 7 7 7 7 8 8 8 8 7 7 7 7 6 6 6 6 6 6 6 6 6 6 7 7 7 8 8
17 16 15 14 13 12 11 10 10 9 9 8 8 8 7 7 7 7 7 7 8 8 8 8 7 7 7 6 6 6 6 6 6 6 6 6 6 6 7 7 7 8 8
17 16 15 14 13 12 11 10 10 9 9 8 8 7 7 7 7 7 7 8 8 8 8 8 7 7 7 6 6 6 6 6 6 6 6 6 6 7 7 7 8 8 8
17 16 15 14 13 12 11 10 10 9 9 8 8 7 7 7 7 7 8 9 8 8 8 8 8 7 7 6 6 6 6 6 6 6 6 6 6 7 7 7 8 8 8

GEFSMW_850_meantemp_042.txt.gz
Temperature
18 17 18 17 17 17 17 17 17 17 16 16 15 15 15 14 14 13 13 13 13 13 13 13 13 13 13 13 13 13 14 14 14 14 14 15 15 15 15 15 15 16 16
17 18 18 18 18 17 17 17 17 16 16 15 15 14 14 13 13 13 12 12 12 12 12 13 13 13 13 13 13 13 13 13 13 13 13 13 14 15 15 15 15 15 15
18 18 18 18 18 17 17 17 16 16 15 15 14 14 13 13 12 12 12 12 12 12 12 12 12 12 12 13 13 13 13 13 13 13 12 13 13 14 14 14 15 15 15
19 19 18 18 18 18 17 17 16 16 15 15 14 13 13 12 12 11 11 11 11 11 11 11 11 12 12 12 12 12 12 12 12 13 12 12 12 12 13 14 14 14 14
19 19 19 19 18 18 17 17 16 16 15 14 13 13 12 12 11 11 11 11 11 11 11 11 11 11 11 11 12 12 12 12 12 12 12 12 12 12 12 13 14 14 14
19 19 19 19 18 18 17 17 16 16 15 14 13 12 12 11 11 11 11 11 11 11 10 10 10 10 11 11 11 11 11 11 12 12 12 12 12 12 12 12 13 13 14
19 19 19 19 18 18 18 17 16 15 14 13 13 12 12 11 11 11 10 10 10 10 10 10 10 10 10 10 10 11 11 11 11 11 11 12 12 11 12 12 12 13 13
19 19 19 19 18 18 17 16 16 15 14 13 12 12 11 11 11 11 10 10 10 10 10 9 9 9 9 9 9 10 10 10 10 11 11 11 11 11 11 11 12 12 13
20 20 19 19 18 18 17 16 15 14 13 13 12 12 11 11 11 11 10 10 10 10 9 9 9 9 9 9 9 9 9 9 10 10 10 11 11 11 11 11 11 11 12
20 20 19 19 18 17 16 15 15 14 13 13 12 12 11 11 11 11 10 10 10 10 9 9 9 9 9 9 8 8 8 9 9 9 10 10 10 11 11 11 11 11 11
20 20 19 18 18 17 16 15 14 14 13 12 12 12 11 11 11 10 10 10 10 9 9 9 9 9 9 9 8 8 8 8 8 9 9 9 10 10 10 10 11 11 11
20 19 19 18 17 17 16 15 14 13 13 12 12 12 11 11 11 10 10 10 9 9 9 9 9 9 9 8 8 8 8 8 8 8 8 9 9 9 10 10 10 11 11
20 19 18 18 17 16 16 15 14 13 13 12 12 11 11 11 10 10 10 9 9 9 9 9 8 8 8 8 8 8 8 8 8 8 8 8 8 9 9 9 10 10 10
19 19 18 18 17 16 15 14 14 13 12 12 12 11 11 10 10 10 9 9 9 9 9 8 8 8 8 8 8 8 8 8 8 8 8 8 8 8 8 9 9 10 10
19 19 18 18 17 16 15 14 13 13 12 12 11 11 10 10 10 9 9 9 9 8 8 8 8 8 8 8 8 8 8 8 8 8 8 8 8 8 8 8 9 9 9
20 19 18 17 17 16 15 14 13 13 12 12 11 11 10 10 9 9 9 9 8 8 8 8 8 8 8 8 8 8 8 8 8 8 8 8 7 7 7 8 8 8 9
20 19 18 17 17 16 15 14 13 12 12 11 11 10 10 9 9 9 9 8 8 8 8 8 8 8 8 8 8 8 7 7 8 8 8 8 8 7 7 7 8 8 8
20 19 18 17 16 15 15 14 13 12 12 11 11 10 9 9 9 9 8 8 8 8 8 8 8 8 8 8 8 8 7 7 7 7 7 7 7 7 7 7 7 7 8
20 19 18 17 16 15 15 14 13 12 12 11 10 10 9 9 9 8 8 8 8 7 7 8 8 8 8 8 8 7 7 7 7 7 7 7 7 7 7 6 6 7 8
20 19 18 17 16 15 14 14 13 12 12 11 10 10 9 9 8 8 8 8 7 7 7 8 8 8 8 8 8 7 7 7 7 7 7 7 7 7 6 6 6 6 7
20 19 18 17 17 15 14 14 13 12 12 11 10 10 9 8 8 8 8 7 7 7 7 8 8 8 8 8 8 7 7 7 6 6 7 7 6 6 6 6 6 6 7
20 19 18 18 16 15 14 14 13 12 12 11 10 10 9 8 8 8 7 7 7 7 7 8 8 8 8 8 7 7 7 6 6 6 6 6 6 6 6 6 6 6 6
20 19 18 17 16 15 15 14 13 12 12 11 10 10 9 9 8 7 7 7 7 7 8 8 8 8 8 8 7 7 7 6 6 6 6 6 6 6 6 6 6 6 6
20 19 18 17 17 16 15 14 13 12 12 11 10 10 9 9 8 8 7 7 7 8 8 8 8 8 8 8 7 7 7 6 6 6 6 6 6 6 6 6 6 6 6
21 19 18 18 17 16 15 14 13 12 12 11 10 10 9 9 9 8 8 8 8 8 8 8 8 8 8 8 7 7 7 6 6 6 6 6 6 6 5 5 6 6 6
20 19 18 18 17 16 15 14 13 12 12 11 11 10 9 9 8 8 9 9 8 8 8 8 8 8 8 8 7 7 6 6 6 6 6 6 6 6 6 5 6 6 6

GEFSMW_850_meantemp_048.txt.gz
Temperature
18 17 17 17 17 17 17 17 17 17 16 16 15 15 15 14 14 13 12 12 12 12 12 12 12 13 13 13 13 13 14 14 14 14 15 16 16 16 15 15 16 16 15
18 18 17 17 17 17 17 17 17 16 16 15 15 15 14 14 13 12 12 11 11 11 12 11 12 12 12 12 12 12 13 14 14 14 15 16 17 16 16 15 15 15 15
19 18 18 18 18 17 17 17 17 16 16 15 15 14 14 14 14 13 12 11 11 11 11 11 11 11 12 12 12 12 12 13 13 14 14 15 16 16 16 15 15 15 15
20 19 19 18 18 18 17 17 17 16 16 16 15 14 14 14 13 12 12 11 11 11 11 10 10 11 11 11 11 12 12 12 13 14 13 13 13 14 15 16 15 15 15
20 20 20 19 19 18 18 17 17 16 16 16 15 14 14 13 13 12 11 11 11 10 10 10 10 10 10 10 10 11 11 12 12 13 13 13 13 13 13 15 15 15 15
21 20 20 19 19 18 18 17 17 17 16 16 15 14 13 12 12 11 11 11 12 11 10 10 10 10 10 10 10 10 10 11 11 11 12 13 13 14 14 14 14 15 15
21 21 20 20 19 18 18 17 17 16 16 15 14 13 13 12 12 11 12 11 12 12 10 10 10 10 9 9 9 9 10 10 10 10 11 12 12 13 13 13 14 14 14
22 21 21 20 19 18 18 17 17 16 15 14 14 13 13 12 12 12 11 11 11 11 10 10 9 9 9 9 9 9 10 10 9 10 10 11 11 12 12 12 13 13 14
22 22 21 20 19 18 18 17 16 16 15 14 13 13 12 12 12 11 11 11 11 11 10 10 9 9 9 9 9 9 9 9 9 10 10 10 11 11 11 12 12 12 13
22 21 21 20 19 18 17 17 16 15 15 14 13 13 12 12 12 11 11 11 10 10 10 10 10 9 9 9 9 9 9 9 9 9 9 9 10 11 11 11 11 12 12
23 22 21 20 19 18 17 17 16 15 15 14 13 13 12 12 11 11 11 11 10 10 10 10 10 9 9 9 9 9 9 9 9 9 9 9 9 9 10 11 11 11 12
23 22 20 19 19 18 18 17 16 15 15 14 13 13 12 12 12 11 11 10 10 10 10 10 9 9 9 9 9 9 9 9 9 9 9 9 9 9 9 10 10 11 11
22 21 20 19 19 18 18 17 16 15 15 14 13 13 12 12 11 11 11 10 10 10 10 9 9 9 9 9 9 8 8 8 8 8 8 8 9 9 9 9 10 10 11
21 21 20 19 19 18 18 17 16 16 15 14 14 13 12 12 12 11 11 10 10 10 10 9 9 9 9 9 9 8 8 8 8 8 8 8 8 8 8 9 9 9 10
21 21 20 20 19 19 18 17 17 16 15 14 14 13 12 12 11 11 10 10 10 10 9 9 9 9 9 9 9 8 8 8 8 8 8 8 8 8 8 8 9 9 9
22 21 21 20 20 19 18 17 17 16 15 14 14 13 12 12 11 11 10 10 10 9 9 9 9 9 9 9 8 8 8 8 8 8 8 8 8 8 8 8 8 8 8
23 22 21 20 20 19 18 18 17 16 15 14 14 13 12 12 11 11 10 10 9 9 9 9 9 8 8 8 9 8 8 8 8 8 8 8 9 8 8 8 8 8 8
23 22 21 21 20 19 18 18 17 16 15 14 14 13 12 12 11 11 10 10 9 9 9 9 9 8 8 8 8 8 8 8 8 8 8 8 8 8 8 8 8 8 8
23 22 22 21 20 19 19 18 17 16 15 15 14 13 12 12 11 10 10 10 9 9 9 8 8 8 8 8 8 8 8 8 8 8 8 8 8 8 7 7 7 7 8
23 22 22 21 20 20 19 18 17 16 15 15 14 13 13 12 12 11 11 10 9 9 9 8 8 8 8 9 9 8 8 8 8 8 8 8 8 7 7 7 7 7 7
23 22 21 21 20 20 19 18 17 16 15 14 14 13 13 12 12 11 11 10 9 9 9 9 9 8 9 9 9 8 8 8 8 8 8 8 8 7 7 7 7 7 7
22 21 21 21 20 20 19 18 17 16 15 14 14 13 13 12 11 11 11 10 9 9 9 9 9 9 9 9 9 8 8 8 8 8 8 8 7 7 7 7 7 7 7
21 20 20 20 19 19 19 18 18 16 16 15 14 14 13 12 12 11 10 10 9 9 9 9 9 9 9 9 8 8 8 8 8 8 7 7 7 7 7 7 7 6 6
19 19 19 18 18 19 19 18 17 16 16 15 14 14 13 12 11 11 10 10 9 9 9 9 9 9 9 9 8 8 8 7 7 7 7 7 7 7 7 6 6 6 6
18 18 18 17 17 17 18 18 17 16 15 15 14 13 12 12 12 11 11 10 9 9 9 8 8 8 8 9 8 8 8 7 7 7 7 7 7 7 7 7 7 6 6
17 17 16 16 16 16 17 16 16 16 15 14 13 13 12 12 11 11 10 10 10 9 9 9 8 8 8 8 8 8 8 8 7 7 6 7 7 7 7 7 7 7 7

GEFSMW_850_meantemp_054.txt.gz
Temperature
19 19 19 18 18 18 18 18 18 18 17 17 17 16 16 16 16 15 15 14 13 13 13 13 13 14 14 14 14 14 14 14 15 15 15 16 16 17 17 17 17 17 17
19 19 19 19 18 18 18 18 18 18 17 17 17 16 16 16 16 15 15 14 13 13 13 13 13 13 13 13 13 13 13 14 14 14 15 15 16 17 17 17 17 17 16
20 19 19 19 19 19 19 19 18 18 17 17 16 16 16 16 15 15 15 14 14 13 12 12 12 12 13 13 13 13 13 13 14 14 14 15 15 15 16 17 17 16 16
20 20 20 20 20 19 19 19 18 18 17 17 16 16 16 15 15 15 14 14 13 13 12 12 12 12 12 12 12 13 13 13 13 13 14 14 14 14 15 16 16 16 16
21 21 20 20 20 20 20 19 18 18 17 17 16 16 15 15 15 15 14 14 13 13 13 12 12 12 12 12 12 12 12 12 12 12 13 13 14 14 14 14 15 16 16
22 22 21 21 21 21 20 20 19 18 17 17 16 15 15 15 15 15 14 14 13 14 13 13 12 12 12 12 12 12 11 11 12 12 12 12 13 13 14 14 14 15 15
23 22 22 22 21 21 21 20 19 18 17 17 16 16 15 15 14 14 14 13 13 14 13 13 13 12 12 12 11 11 11 11 11 11 12 12 12 12 13 13 13 14 14
24 23 23 22 22 21 21 20 19 18 17 17 16 16 15 15 14 14 14 14 13 13 13 13 12 12 12 11 11 11 11 11 11 11 11 11 12 12 12 13 13 13 14
25 24 23 23 22 21 21 20 19 18 18 17 16 16 15 15 15 14 14 13 13 13 13 12 12 12 11 11 11 11 11 11 11 11 11 11 11 12 12 12 12 13 13
25 25 24 23 22 21 21 20 19 18 17 17 16 16 15 15 14 14 13 13 13 13 13 12 12 12 11 11 11 11 11 11 11 11 11 11 11 11 11 11 12 12 12
26 25 24 24 23 22 21 20 19 18 17 17 16 16 15 15 14 14 13 13 13 12 12 12 12 12 11 11 11 11 11 11 11 11 11 11 11 11 11 11 11 11 12
26 26 24 23 23 22 21 20 19 18 18 17 16 16 15 15 14 14 13 13 13 12 12 12 12 11 11 11 11 11 11 11 10 10 10 10 10 10 10 10 10 11 11
26 26 24 23 22 22 21 20 19 19 18 17 17 16 15 15 14 14 14 13 13 13 12 12 12 11 11 11 11 11 11 10 10 10 10 10 10 10 10 10 10 10 10
26 25 24 23 22 22 21 20 20 19 18 18 17 16 16 15 15 14 14 13 13 13 12 12 12 11 11 11 11 10 10 10 10 10 10 10 10 10 10 10 10 10 10
26 25 24 23 22 21 21 20 19 19 18 18 17 17 16 16 15 15 14 14 13 13 12 12 11 11 11 11 11 11 10 10 10 10 10 10 10 10 10 10 10 10 10
26 25 24 23 22 21 20 20 19 19 18 18 18 17 16 16 16 15 15 14 13 13 12 12 12 11 11 11 11 10 10 10 10 10 10 10 10 10 10 10 10 10 10
26 25 24 23 22 21 21 20 20 19 18 18 18 17 17 16 16 15 15 14 14 13 13 12 12 11 11 10 10 10 10 10 10 10 10 9 9 10 10 10 9 9 9
26 26 25 24 23 22 21 20 20 19 19 18 18 17 17 16 16 15 15 14 14 13 13 12 12 12 11 11 10 10 10 10 10 10 10 10 10 10 10 9 9 9 9
26 25 25 24 23 23 22 21 20 19 19 18 18 18 17 16 16 16 15 15 14 14 13 13 12 12 11 11 10 10 10 10 10 10 10 9 9 10 9 9 9 9 9
25 25 25 24 24 23 22 21 21 20 19 19 18 18 17 16 16 16 16 15 15 14 14 13 12 12 11 11 10 10 10 9 10 10 10 10 10 10 9 9 9 9 9
24 24 24 24 24 23 22 22 21 20 19 19 18 17 17 17 16 16 16 15 15 14 13 13 13 12 12 11 11 10 10 10 9 9 9 9 9 10 9 9 9 9 9
23 23 22 23 23 22 22 21 20 20 19 18 18 17 17 16 16 15 15 15 15 14 13 13 13 12 12 12 11 11 10 10 9 9 9 9 9 9 9 9 9 8 8
20 21 21 21 21 21 20 20 19 18 18 17 17 17 16 16 16 15 15 14 14 13 13 13 12 12 12 12 11 11 10 10 9 9 9 9 9 9 8 8 8 8 8
18 19 19 19 19 19 18 18 18 17 17 17 16 16 16 15 15 15 14 14 13 13 13 13 12 12 12 12 11 11 10 10 9 9 9 9 8 8 8 8 8 8 8
17 17 17 17 17 17 17 16 16 16 16 16 15 15 15 14 14 14 14 14 13 13 13 13 12 12 12 11 11 10 10 9 9 8 8 8 8 8 8 8 8 8 8
16 16 15 15 15 15 15 15 15 15 15 14 14 14 14 14 14 14 14 14 14 14 13 13 12 12 12 11 11 10 10 9 9 9 8 8 8 8 8 8 8 8 8